Weather History for KTOI - April, 2013

Change the Weather History Date:

Thursday, April 11, 2013

  Actual Average Record
Temperature  
Mean Temperature 71 °F 62 °F  
Max Temperature 83 °F 75 °F 86 °F (2011)
Min Temperature 59 °F 49 °F 43 °F (2003)
Degree Days  
Heating Degree Days 0 5  
Month to date heating degree days 53 59  
Since 1 July heating degree days 2088 2260  
Cooling Degree Days 6 2  
Month to date cooling degree days 15 13  
Year to date cooling degree days 40 32  
Growing Degree Days 20 (Base 50)    
Moisture  
Dew Point 64 °F    
Average Humidity 78    
Maximum Humidity 93    
Minimum Humidity 62    
Precipitation  
Precipitation 0.66 in 0.15 in 0.66 in (2013)
Month to date precipitation 0.84 1.76  
Year to date precipitation 19.91 16.92  
Snow  
Snow 0.00 in - - ()
Month to date snowfall 0.0  
Since 1 July snowfall 0.0  
Snow Depth 0.00 in    
Sea Level Pressure  
Sea Level Pressure 29.79 in    
Wind  
Wind Speed 10 mph (South)    
Max Wind Speed 24 mph    
Max Gust Speed 32 mph    
Visibility 8 miles    
Events Rain , Thunderstorm    
T = Trace of Precipitation, MM = Missing Value Source: NWS Daily Summary

Daily Weather History Graph

Daily Weather History Graph

Search for Another Location

Airport or City:

Trip Planner

Search our weather history database for the weather conditions in past years. The results will help you decide how hot, cold, wet, or windy it might be!

Date:

Astronomy

Apr. 11, 2013 Rise Set
Actual Time 6:19 AM CDT 7:10 PM CDT
Civil Twilight 5:54 AM CDT 7:35 PM CDT
Nautical Twilight 5:25 AM CDT 8:05 PM CDT
Astronomical Twilight 4:55 AM CDT 8:35 PM CDT
Moon 6:56 AM CDT (4/11) 8:37 PM CDT (4/11)
Length of Visible Light 13h 40m
Length of Day
12h 50m
New Moon, 2% of the Moon is Illuminated
Apr 11
New Moon
Apr 18
First Quarter
Apr 25
Full
May 2
Last Quarter
May 9
New

Hourly Weather History & Observations

Time (CDT) Temp. Heat Index Dew Point Humidity Pressure Visibility Wind Dir Wind Speed Gust Speed Precip Events Conditions
12:53 AM 64.9 °F - 57.0 °F 75% 29.92 in 10.0 mi Calm Calm - N/A   Clear
1:53 AM 63.0 °F - 57.0 °F 81% 29.90 in 10.0 mi SSW 3.5 mph - N/A   Clear
2:53 AM 62.1 °F - 55.9 °F 80% 29.88 in 10.0 mi Calm Calm - N/A   Clear
3:53 AM 59.0 °F - 55.9 °F 90% 29.88 in 10.0 mi Calm Calm - N/A   Scattered Clouds
4:18 AM 59.0 °F - 55.4 °F 88% 29.89 in 10.0 mi Calm Calm - N/A   Mostly Cloudy
4:53 AM 60.1 °F - 57.0 °F 90% 29.88 in 10.0 mi Calm Calm - N/A   Overcast
5:06 AM 60.8 °F - 57.2 °F 88% 29.88 in 10.0 mi East 3.5 mph - N/A   Overcast
5:18 AM 60.8 °F - 57.2 °F 88% 29.88 in 10.0 mi East 3.5 mph - N/A   Overcast
5:28 AM 60.8 °F - 57.2 °F 88% 29.88 in 10.0 mi East 3.5 mph - N/A   Overcast
5:53 AM 62.1 °F - 57.0 °F 84% 29.87 in 10.0 mi East 4.6 mph - N/A   Mostly Cloudy
6:14 AM 60.8 °F - 57.2 °F 88% 29.88 in 10.0 mi Calm Calm - N/A   Partly Cloudy
6:21 AM 60.8 °F - 57.2 °F 88% 29.88 in 10.0 mi Calm Calm - N/A   Mostly Cloudy
6:31 AM 62.6 °F - 57.2 °F 82% 29.89 in 10.0 mi Calm Calm - N/A   Mostly Cloudy
6:53 AM 63.0 °F - 59.0 °F 87% 29.89 in 10.0 mi ESE 3.5 mph - N/A   Overcast
7:53 AM 64.0 °F - 60.1 °F 87% 29.89 in 10.0 mi SE 8.1 mph - N/A   Overcast
8:53 AM 66.9 °F - 64.0 °F 90% 29.89 in 8.0 mi SE 8.1 mph - N/A   Overcast
9:17 AM 69.8 °F - 64.4 °F 83% 29.90 in 10.0 mi SSE 8.1 mph - 0.00 in   Overcast
9:53 AM 72.0 °F - 64.9 °F 78% 29.88 in 10.0 mi South 10.4 mph - 0.00 in   Mostly Cloudy
10:24 AM 75.2 °F - 66.2 °F 73% 29.89 in 10.0 mi South 11.5 mph 19.6 mph N/A   Overcast
10:53 AM 75.9 °F - 66.0 °F 71% 29.87 in 10.0 mi South 13.8 mph 21.9 mph N/A   Overcast
11:35 AM 78.8 °F - 66.2 °F 65% 29.87 in 10.0 mi SSE 9.2 mph 21.9 mph N/A   Mostly Cloudy
11:53 AM 78.1 °F - 66.9 °F 68% 29.85 in 10.0 mi South 12.7 mph 18.4 mph N/A   Mostly Cloudy
12:05 PM 78.8 °F - 66.2 °F 65% 29.85 in 10.0 mi SSE 13.8 mph 19.6 mph N/A   Mostly Cloudy
12:42 PM 78.8 °F - 66.2 °F 65% 29.83 in 10.0 mi SSE 13.8 mph 25.3 mph 0.00 in   Overcast
12:50 PM 78.8 °F - 66.2 °F 65% 29.82 in 10.0 mi South 13.8 mph 21.9 mph 0.00 in   Mostly Cloudy
12:53 PM 80.1 °F 82.1 °F 66.0 °F 62% 29.81 in 10.0 mi South 16.1 mph 21.9 mph 0.00 in   Mostly Cloudy
1:53 PM 81.0 °F 83.3 °F 66.9 °F 62% 29.75 in 10.0 mi South 18.4 mph 26.5 mph N/A   Clear
2:53 PM 80.1 °F 82.1 °F 66.0 °F 62% 29.73 in 10.0 mi South 13.8 mph 21.9 mph 0.00 in Rain Light Rain
3:53 PM 75.9 °F - 68.0 °F 76% 29.70 in 10.0 mi South 15.0 mph 19.6 mph 0.07 in   Partly Cloudy
4:53 PM 75.9 °F - 68.0 °F 76% 29.67 in 10.0 mi South 10.4 mph 18.4 mph N/A   Partly Cloudy
5:53 PM 75.0 °F - 66.9 °F 76% 29.65 in 10.0 mi South 15.0 mph 26.5 mph N/A   Clear
6:53 PM 75.0 °F - 66.9 °F 76% 29.64 in 10.0 mi South 10.4 mph - N/A   Mostly Cloudy
7:28 PM 73.4 °F - 66.2 °F 78% 29.65 in 9.0 mi South 12.7 mph 19.6 mph 0.00 in Rain Light Rain
7:41 PM 73.4 °F - 68.0 °F 83% 29.65 in 4.0 mi South 15.0 mph 24.2 mph 0.03 in Rain , Thunderstorm Rain
7:53 PM 72.0 °F - 68.0 °F 87% 29.65 in 4.0 mi South 10.4 mph 18.4 mph 0.07 in Rain , Thunderstorm Rain
8:13 PM 71.6 °F - 69.8 °F 94% 29.67 in 4.0 mi South 10.4 mph 19.6 mph 0.06 in Rain , Thunderstorm Thunderstorms and Rain
8:24 PM 71.6 °F - 69.8 °F 94% 29.71 in 2.0 mi SW 12.7 mph 19.6 mph 0.13 in Rain , Thunderstorm Heavy Thunderstorms and Rain
8:26 PM 71.6 °F - 69.8 °F 94% 29.73 in 1.5 mi WSW 20.7 mph 31.1 mph 0.23 in Rain , Thunderstorm Heavy Thunderstorms and Rain
8:28 PM 69.8 °F - 68.0 °F 94% 29.72 in 1.0 mi SW 24.2 mph 32.2 mph 0.29 in Rain , Thunderstorm Heavy Thunderstorms and Rain
8:33 PM 69.8 °F - 68.0 °F 94% 29.71 in 1.0 mi South 19.6 mph 32.2 mph 0.35 in Rain , Thunderstorm Heavy Thunderstorms and Rain
8:36 PM 69.8 °F - 66.2 °F 88% 29.71 in 1.2 mi SSW 19.6 mph 32.2 mph 0.37 in Rain , Thunderstorm Heavy Thunderstorms and Rain
8:38 PM 69.8 °F - 66.2 °F 88% 29.72 in 1.8 mi SSW 16.1 mph 29.9 mph 0.38 in Rain , Thunderstorm Heavy Thunderstorms and Rain
8:45 PM 69.8 °F - 66.2 °F 88% 29.73 in 2.5 mi SSW 20.7 mph 27.6 mph 0.42 in Rain , Thunderstorm Heavy Rain
8:49 PM 69.8 °F - 66.2 °F 88% 29.73 in 3.0 mi SSW 16.1 mph 27.6 mph 0.44 in Rain , Thunderstorm Rain
8:53 PM 69.1 °F - 66.0 °F 90% 29.70 in 3.0 mi SSW 15.0 mph 27.6 mph 0.47 in Rain , Thunderstorm Rain
9:05 PM 68.0 °F - 64.4 °F 88% 29.64 in 5.0 mi SSE 18.4 mph 23.0 mph 0.01 in Rain , Thunderstorm Light Rain
9:26 PM 68.0 °F - 64.4 °F 88% 29.70 in 5.0 mi South 12.7 mph 19.6 mph 0.04 in Rain Light Rain
9:53 PM 69.1 °F - 64.9 °F 87% 29.66 in 10.0 mi South 11.5 mph 20.7 mph 0.05 in   Partly Cloudy
10:15 PM 68.0 °F - 64.4 °F 88% 29.71 in 10.0 mi SSW 11.5 mph - N/A   Mostly Cloudy
10:53 PM 68.0 °F - 64.9 °F 90% 29.72 in 10.0 mi SSW 11.5 mph 21.9 mph N/A   Overcast
11:07 PM 68.0 °F - 64.4 °F 88% 29.74 in 10.0 mi SSW 13.8 mph - N/A   Overcast
11:19 PM 68.0 °F - 64.4 °F 88% 29.75 in 10.0 mi SSW 19.6 mph 27.6 mph N/A   Overcast
11:53 PM 68.0 °F - 64.0 °F 87% 29.74 in 10.0 mi SSW 11.5 mph 19.6 mph N/A   Overcast